Flag for Germany Weather past 2 weeks in Düren, North Rhine-Westphalia, Germany

Now
43 °F

Rain. Overcast.


Feels Like: 43 °F
Forecast: 32 / 45 °F
Wind: 1 mph from Southeast

Location: Noervenich

Current Time: Feb 27, 2015 at 2:15:20 AM

Latest Report: Feb 27, 2015 at 1:20 AM


Visibility: 6 mi

Pressure: 29.77 "Hg

Humidity: 93%

Dew point: 41 °F

Location of DürenLocation

Historic Weather in Düren — Graph

°F

Düren temperature yesterday

Maximum temperature yesterday: 48 °F (at 12:20 PM)
Minimum temperature yesterday: 36 °F (at 6:20 AM)
Average temperature yesterday: 43 °F

Past Weeks' High & Low Weather Summary

 TemperatureHumidityPressure
High50 °F (Feb 13, 3:20 PM)100% (Feb 12, 8:20 AM)30.74 "Hg (Feb 12, 8:20 AM)
Low27 °F (Feb 19, 7:20 AM)53% (Feb 15, 2:20 PM)29.36 "Hg (Feb 21, 4:20 AM)
Average39 °F82%29.99 "Hg
* Reported Feb 12 12:20 AM — Feb 27 12:20 AM, Düren, Weather by CustomWeather, © 2015

Note: Actual official high and low records may vary slightly from our data, if they occured in-between our weather recording intervals... More about our weather records

Advertising

Düren weather history for previous 24 hours

 ConditionsComfort  
Time TempWeatherWind HumidityBarometerVisibility
12:20 AM
Fri, Feb 27
43 °FRain. Overcast.5 mph93%29.77 "Hg5 mi
11:20 PM
Thu, Feb 26
43 °FRain. Passing clouds.3 mph93%29.80 "Hg5 mi
10:20 PM43 °FPartly cloudy.3 mph93%29.83 "Hg4 mi
9:20 PM43 °FPartly cloudy.5 mph93%29.83 "Hg3 mi
8:20 PM45 °FPassing clouds.6 mph81%29.86 "HgN/A
7:20 PM46 °FPartly cloudy.7 mph76%29.89 "HgN/A
6:20 PM46 °FPartly cloudy.6 mph76%29.89 "HgN/A
5:20 PM46 °FCloudy.8 mph76%29.92 "HgN/A
4:20 PM46 °FBroken clouds.8 mph76%29.95 "HgN/A
3:20 PM48 °FBroken clouds.6 mph71%29.95 "HgN/A
2:20 PM48 °FBroken clouds.6 mph71%29.98 "HgN/A
1:20 PM48 °FBroken clouds.9 mph71%30.01 "HgN/A
12:20 PM48 °FBroken clouds.6 mph71%30.04 "HgN/A
11:20 AM46 °FPartly sunny.5 mph76%30.04 "HgN/A
10:20 AM45 °FScattered clouds.5 mph76%30.07 "HgN/A
9:20 AM41 °FPassing clouds.3 mph81%30.09 "HgN/A
8:20 AM37 °FPassing clouds.2 mph93%30.09 "HgN/A
7:20 AM36 °FPassing clouds.3 mph93%30.09 "HgN/A
6:20 AM36 °FPassing clouds.1 mph93%30.09 "HgN/A
5:20 AM37 °FPassing clouds.2 mph93%30.09 "HgN/A
4:20 AM37 °FPassing clouds.1 mph93%30.09 "HgN/A
3:20 AM39 °FPassing clouds.2 mph93%30.09 "HgN/A
2:20 AM39 °FPassing clouds.2 mph93%30.12 "HgN/A
Weather by CustomWeather, © 2015

See weather overviewHow to use our weather pages